Powrót do katalogu

STARLINK-3925

AktywnyŁącznośćVLEO
NORAD 52498·PAYLOAD·🇺🇸 United States

Wystrzelony May 6, 2022 z Cape Canaveral Space Force Station

Loading…

Następne Przeloty (najbliższe 24 godziny)

TLE

ŚwieżeSource: CelesTrak SupGP

Epoka: Sep 14, 2026, 22:03 UTC

1 52498C 22049AZ  26257.91923611  .00051936  00000+0  15351-2 0  2576
2 52498  53.1571 263.4799 0001020  89.3055 293.7635 15.34352320    19

Śledź STARLINK-3925 w czasie rzeczywistym z AllMySat

Download on the App Store